Cheraw, SC

12:16 PM EDT on July 27, 2017 (GMT -0400)
Cheraw

Weather History for KCQW - March, 2013

Change the Weather History Date:

Thursday, March 21, 2013

  Actual Average (KFLO) Record (KFLO)
Temperature  
Mean Temperature 40 °F -  
Max Temperature 48 °F 69 °F 89 °F (1968)
Min Temperature 32 °F 45 °F 26 °F (1965)
Degree Days  
Heating Degree Days 25    
Moisture  
Dew Point 11 °F    
Average Humidity 34    
Maximum Humidity 80    
Minimum Humidity 15    
Precipitation  
Precipitation 0.00 in - - ()
Sea Level Pressure  
Sea Level Pressure 29.84 in    
Wind  
Wind Speed - (North)    
Max Wind Speed -    
Max Gust Speed -    
Visibility 10 miles    
Events      
Averages and records for this station are not official NWS values.
T = Trace of Precipitation, MM = Missing Value Source: NWS Daily Summary

Daily Weather History Graph

Daily Weather History Graph

Search for Another Location

Airport or City:

Trip Planner

Search our weather history database for the weather conditions in past years. The results will help you decide how hot, cold, wet, or windy it might be!

Date:

Astronomy

Mar. 21, 2013 Rise Set
Actual Time 7:21 AM EDT 7:32 PM EDT
Civil Twilight 6:56 AM EDT 7:57 PM EDT
Nautical Twilight 6:27 AM EDT 8:27 PM EDT
Astronomical Twilight 5:57 AM EDT 8:56 PM EDT
Moon 2:12 PM EDT (3/21) 3:30 AM EDT (3/21)
Length of Visible Light 13h 01m
Length of Day
12h 10m
Waxing Gibbous, 68% of the Moon is Illuminated
Mar 21
Waxing Gibbous
Mar 27
Full
Apr 3
Last Quarter
Apr 10
New
Apr 18
First Quarter

Hourly Weather History & Observations

Time (EDT) Temp. Dew Point Humidity Pressure Visibility Wind Dir Wind Speed Gust Speed Precip Events Conditions
12:15 AM 35.6 °F 23.0 °F 60% 29.78 in 10.0 mi North - - N/A   Clear
12:35 AM 37.4 °F 23.0 °F 56% 29.78 in 10.0 mi North - - N/A   Clear
12:55 AM 35.6 °F 23.0 °F 60% 29.77 in 10.0 mi North - - N/A   Clear
1:15 AM 37.4 °F 23.0 °F 56% 29.77 in 10.0 mi North - - N/A   Clear
1:35 AM 35.6 °F 23.0 °F 60% 29.77 in 10.0 mi North - - N/A   Clear
2:15 AM 32.0 °F 26.6 °F 80% 29.77 in 10.0 mi North - - N/A   Clear
2:35 AM 35.6 °F 23.0 °F 60% 29.76 in 10.0 mi North - - N/A   Clear
2:55 AM 35.6 °F 24.8 °F 65% 29.77 in 10.0 mi North - - N/A   Clear
3:15 AM 37.4 °F 24.8 °F 60% 29.77 in 10.0 mi North - - N/A   Clear
3:35 AM 41.0 °F 24.8 °F 53% 29.77 in 10.0 mi North - - N/A   Clear
3:55 AM 41.0 °F 23.0 °F 49% 29.78 in 10.0 mi North - - N/A   Clear
4:35 AM 39.2 °F 14.0 °F 36% 29.79 in 10.0 mi North - - N/A   Clear
4:55 AM 39.2 °F 12.2 °F 33% 29.79 in 10.0 mi North - - N/A   Clear
5:15 AM 39.2 °F 12.2 °F 33% 29.79 in 10.0 mi North - - N/A   Clear
5:35 AM 37.4 °F 10.4 °F 33% 29.80 in 10.0 mi North - - N/A   Clear
5:55 AM 37.4 °F 12.2 °F 36% 29.80 in 10.0 mi North - - N/A   Clear
6:15 AM 35.6 °F 14.0 °F 41% 29.81 in 10.0 mi North - - N/A   Clear
6:35 AM 35.6 °F 14.0 °F 41% 29.82 in 10.0 mi North - - N/A   Clear
6:55 AM 33.8 °F 15.8 °F 48% 29.82 in 10.0 mi North - - N/A   Clear
7:15 AM 32.0 °F 15.8 °F 51% 29.83 in 10.0 mi North - - N/A   Clear
7:35 AM 32.0 °F 15.8 °F 51% 29.83 in 10.0 mi North - - N/A   Clear
7:55 AM 32.0 °F 17.6 °F 55% 29.83 in 10.0 mi North - - N/A   Clear
8:15 AM 33.8 °F 15.8 °F 48% 29.84 in 10.0 mi North - - N/A   Clear
8:35 AM 35.6 °F 14.0 °F 41% 29.85 in 10.0 mi North - - N/A   Clear
8:55 AM 37.4 °F 10.4 °F 33% 29.85 in 10.0 mi North - - N/A   Clear
9:15 AM 37.4 °F 10.4 °F 33% 29.86 in 10.0 mi North - - N/A   Clear
9:35 AM 37.4 °F 8.6 °F 30% 29.86 in 10.0 mi North - - N/A   Clear
9:55 AM 39.2 °F 10.4 °F 31% 29.85 in 10.0 mi North - - N/A   Clear
10:15 AM 39.2 °F 10.4 °F 31% 29.85 in 10.0 mi North - - N/A   Clear
10:55 AM 41.0 °F 6.8 °F 24% 29.85 in 10.0 mi North - - N/A   Clear
11:15 AM 42.8 °F 8.6 °F 25% 29.85 in 10.0 mi North - - N/A   Clear
11:35 AM 42.8 °F 8.6 °F 25% 29.85 in 10.0 mi North - - N/A   Clear
11:55 AM 44.6 °F 6.8 °F 21% 29.85 in 10.0 mi North - - N/A   Clear
12:15 PM 44.6 °F 8.6 °F 23% 29.84 in 10.0 mi North - - N/A   Clear
12:35 PM 44.6 °F 5.0 °F 20% 29.84 in 10.0 mi North - - N/A   Clear
12:55 PM 46.4 °F 6.8 °F 20% 29.83 in 10.0 mi North - - N/A   Clear
1:15 PM 46.4 °F 5.0 °F 18% 29.83 in 10.0 mi North - - N/A   Clear
1:35 PM 48.2 °F 5.0 °F 17% 29.82 in 10.0 mi North - - N/A   Clear
1:55 PM 46.4 °F 3.2 °F 17% 29.82 in 10.0 mi North - - N/A   Clear
2:15 PM 46.4 °F 3.2 °F 17% 29.82 in 10.0 mi North - - N/A   Clear
2:35 PM 48.2 °F 3.2 °F 16% 29.81 in 10.0 mi North - - N/A   Clear
2:55 PM 48.2 °F 1.4 °F 15% 29.81 in 10.0 mi North - - N/A   Clear
3:15 PM 48.2 °F 5.0 °F 17% 29.80 in 10.0 mi North - - N/A   Clear
3:35 PM 48.2 °F 5.0 °F 17% 29.80 in 10.0 mi North - - N/A   Clear
3:55 PM 48.2 °F 5.0 °F 17% 29.80 in 10.0 mi North - - N/A   Clear
4:15 PM 48.2 °F 6.8 °F 19% 29.80 in 10.0 mi North - - N/A   Clear
4:35 PM 48.2 °F 6.8 °F 19% 29.81 in 10.0 mi North - - N/A   Clear
4:55 PM 48.2 °F 6.8 °F 19% 29.81 in 10.0 mi North - - N/A   Clear
5:15 PM 48.2 °F 6.8 °F 19% 29.81 in 10.0 mi North - - N/A   Clear
5:35 PM 48.2 °F 6.8 °F 19% 29.82 in 10.0 mi North - - N/A   Clear
5:55 PM 48.2 °F 6.8 °F 19% 29.83 in 10.0 mi North - - N/A   Clear
6:15 PM 48.2 °F 6.8 °F 19% 29.84 in 10.0 mi North - - N/A   Clear
6:35 PM 46.4 °F 6.8 °F 20% 29.84 in 10.0 mi North - - N/A   Clear
6:55 PM 46.4 °F 6.8 °F 20% 29.85 in 10.0 mi North - - N/A   Clear
7:15 PM 44.6 °F 6.8 °F 21% 29.86 in 10.0 mi North - - N/A   Clear
7:35 PM 42.8 °F 8.6 °F 25% 29.87 in 10.0 mi North - - N/A   Clear
7:55 PM 41.0 °F 8.6 °F 26% 29.88 in 10.0 mi North - - N/A   Clear
8:15 PM 39.2 °F 8.6 °F 28% 29.89 in 10.0 mi North - - N/A   Clear
8:35 PM 39.2 °F 10.4 °F 31% 29.90 in 10.0 mi North - - N/A   Clear
8:55 PM 39.2 °F 10.4 °F 31% 29.91 in 10.0 mi North - - N/A   Clear
9:15 PM 37.4 °F 8.6 °F 30% 29.92 in 10.0 mi North - - N/A   Clear
9:35 PM 37.4 °F 8.6 °F 30% 29.93 in 10.0 mi North - - N/A   Clear
9:55 PM 37.4 °F 8.6 °F 30% 29.93 in 10.0 mi North - - N/A   Clear
10:15 PM 35.6 °F 8.6 °F 33% 29.94 in 10.0 mi North - - N/A   Clear
10:35 PM 35.6 °F 8.6 °F 33% 29.95 in 10.0 mi North - - N/A   Clear
10:55 PM 33.8 °F 8.6 °F 35% 29.96 in 10.0 mi North - - N/A   Clear
11:15 PM 32.0 °F 8.6 °F 38% 29.97 in 10.0 mi North - - N/A   Clear
11:35 PM 32.0 °F 8.6 °F 38% 29.98 in 10.0 mi North - - N/A   Clear
11:55 PM 32.0 °F 8.6 °F 38% 29.98 in 10.0 mi North - - N/A   Clear